Scappoose, OR

1:23 PM PST on December 18, 2017 (GMT -0800)
Scappoose Industrial

Weather History for KSPB - December, 2013

Change the Weather History Date:

Thursday, December 12, 2013

  Actual Average Record
Temperature  
Mean Temperature 27 °F -  
Max Temperature 34 °F - 58 °F (2010)
Min Temperature 21 °F - 21 °F (2013)
Degree Days  
Heating Degree Days 37    
Month to date heating degree days 440  
Since 1 July heating degree days 1638  
Cooling Degree Days 0    
Month to date cooling degree days 0  
Year to date cooling degree days 396  
Moisture  
Dew Point 29 °F    
Average Humidity 90    
Maximum Humidity 96    
Minimum Humidity 84    
Precipitation  
Precipitation 0.08 in - 0.99 in (1998)
Month to date precipitation 1.05  
Year to date precipitation 26.78  
Sea Level Pressure  
Sea Level Pressure 30.18 in    
Wind  
Wind Speed 1 mph (West)    
Max Wind Speed 7 mph    
Max Gust Speed 7 mph    
Visibility 4 miles    
Events Rain    
T = Trace of Precipitation, MM = Missing Value Source: NWS Daily Summary

Daily Weather History Graph

Daily Weather History Graph

Search for Another Location

Airport or City:

Trip Planner

Search our weather history database for the weather conditions in past years. The results will help you decide how hot, cold, wet, or windy it might be!

Date:

Astronomy

Dec. 12, 2013 Rise Set
Actual Time 7:43 AM PST 4:27 PM PST
Civil Twilight 7:09 AM PST 5:01 PM PST
Nautical Twilight 6:31 AM PST 5:39 PM PST
Astronomical Twilight 5:55 AM PST 6:15 PM PST
Moon 1:47 PM PST (12/12) 3:01 AM PST (12/12)
Length of Visible Light 9h 52m
Length of Day
8h 43m
Waxing Gibbous, 81% of the Moon is Illuminated
Dec 12
Waxing Gibbous
Dec 17
Full
Dec 25
Last Quarter
Jan 1
New
Jan 7
First Quarter

Hourly Weather History & Observations

Time (PST) Temp. Windchill Dew Point Humidity Pressure Visibility Wind Dir Wind Speed Gust Speed Precip Events Conditions
12:53 AM 23.0 °F - 19.9 °F 88% 30.21 in 7.0 mi Calm Calm - N/A   Clear
1:53 AM 23.0 °F - 21.0 °F 92% 30.22 in 6.0 mi Calm Calm - N/A   Clear
2:53 AM 24.1 °F - 21.0 °F 88% 30.22 in 9.0 mi Calm Calm - N/A   Clear
3:53 AM 24.1 °F - 21.0 °F 88% 30.21 in 10.0 mi Calm Calm - N/A   Clear
4:53 AM 24.1 °F - 21.9 °F 91% 30.19 in 10.0 mi Calm Calm - N/A   Clear
5:53 AM 23.0 °F - 21.0 °F 92% 30.19 in 7.0 mi Calm Calm - N/A   Clear
6:53 AM 21.9 °F - 19.0 °F 89% 30.19 in 7.0 mi Calm Calm - N/A   Clear
7:53 AM 23.0 °F - 21.0 °F 92% 30.20 in 4.0 mi Calm Calm - N/A   Clear
8:53 AM 24.1 °F - 21.0 °F 88% 30.20 in 6.0 mi Calm Calm - N/A   Clear
9:53 AM 28.9 °F 25.2 °F 26.1 °F 89% 30.20 in 7.0 mi North 3.5 mph - N/A   Clear
10:53 AM 30.0 °F - 28.0 °F 92% 30.19 in 6.0 mi Calm Calm - N/A   Overcast
11:53 AM 30.9 °F - 27.0 °F 85% 30.18 in 6.0 mi Calm Calm - N/A   Overcast
12:53 PM 32.0 °F - 28.0 °F 85% 30.16 in 7.0 mi Calm Calm - 0.00 in   Overcast
1:53 PM 32.0 °F - 28.9 °F 88% 30.14 in 5.0 mi Calm Calm - 0.02 in   Overcast
2:53 PM 32.0 °F - 30.0 °F 92% 30.14 in 3.0 mi Calm Calm - 0.02 in   Overcast
3:00 PM 32.0 °F - 30.0 °F 92% 30.14 in 2.5 mi Calm Calm - 0.01 in   Overcast
3:25 PM 32.0 °F - 30.9 °F 96% 30.14 in 1.8 mi Calm Calm - 0.03 in   Overcast
3:36 PM 32.0 °F - 30.9 °F 96% 30.14 in 2.5 mi Calm Calm - 0.03 in   Overcast
3:43 PM 32.0 °F - 30.9 °F 96% 30.14 in 3.0 mi Calm Calm - 0.03 in   Overcast
3:53 PM 32.0 °F 28.7 °F 30.0 °F 92% 30.15 in 3.0 mi North 3.5 mph - 0.03 in   Overcast
4:15 PM 32.0 °F - 30.9 °F 96% 30.16 in 2.5 mi Calm Calm - N/A   Overcast
4:29 PM 33.1 °F - 30.0 °F 89% 30.16 in 4.0 mi Calm Calm - N/A   Overcast
4:53 PM 33.1 °F - 30.9 °F 92% 30.16 in 3.0 mi Calm Calm - N/A   Overcast
5:07 PM 33.1 °F 30.0 °F 30.9 °F 92% 30.16 in 3.0 mi NW 3.5 mph - N/A   Overcast
5:53 PM 33.1 °F 30.0 °F 30.9 °F 92% 30.17 in 3.0 mi SW 3.5 mph - N/A   Overcast
6:53 PM 33.1 °F - 30.9 °F 92% 30.17 in 3.0 mi Calm Calm - N/A   Overcast
7:10 PM 33.1 °F - 30.9 °F 92% 30.17 in 2.5 mi Calm Calm - N/A   Overcast
7:42 PM 33.1 °F - 32.0 °F 96% 30.18 in 3.0 mi Calm Calm - N/A   Overcast
7:49 PM 33.8 °F - 32.0 °F 93% 30.19 in 2.5 mi Calm Calm - N/A   Overcast
7:53 PM 33.1 °F - 30.9 °F 92% 30.19 in 3.0 mi Calm Calm - N/A   Overcast
8:04 PM 33.1 °F - 30.9 °F 92% 30.19 in 2.5 mi Calm Calm - N/A   Overcast
8:15 PM 33.1 °F - 30.9 °F 92% 30.19 in 1.5 mi Calm Calm - 0.00 in Rain Light Rain
8:43 PM 33.1 °F - 30.9 °F 92% 30.19 in 2.5 mi Calm Calm - 0.00 in   Overcast
8:53 PM 33.1 °F - 30.9 °F 92% 30.20 in 2.0 mi Calm Calm - 0.00 in   Overcast
9:03 PM 33.1 °F - 30.9 °F 92% 30.19 in 1.5 mi Calm Calm - N/A   Overcast
9:19 PM 33.1 °F 30.0 °F 32.0 °F 96% 30.19 in 2.0 mi SW 3.5 mph - N/A   Overcast
9:29 PM 33.1 °F 30.0 °F 30.9 °F 92% 30.19 in 3.0 mi West 3.5 mph - N/A   Overcast
9:53 PM 33.1 °F - 32.0 °F 96% 30.20 in 3.0 mi Calm Calm - N/A   Overcast
10:12 PM 33.1 °F - 32.0 °F 96% 30.20 in 2.5 mi Calm Calm - N/A   Overcast
10:29 PM 33.1 °F - 32.0 °F 96% 30.21 in 1.8 mi Calm Calm - N/A   Overcast
10:45 PM 33.1 °F - 32.0 °F 96% 30.21 in 2.5 mi Calm Calm - 0.00 in Rain Light Rain
10:53 PM 33.1 °F - 32.0 °F 96% 30.22 in 2.0 mi Calm Calm - 0.00 in Rain Light Rain
11:46 PM 33.1 °F 30.0 °F 32.0 °F 96% 30.22 in 2.0 mi WSW 3.5 mph - 0.01 in Rain Light Rain
11:49 PM 33.8 °F 30.8 °F 32.0 °F 93% 30.22 in 1.8 mi WSW 3.5 mph - 0.01 in Rain Light Rain
11:53 PM 33.1 °F 30.0 °F 32.0 °F 96% 30.23 in 2.0 mi West 3.5 mph - 0.01 in Rain Light Rain